HVDC transfer

From www.emi.ea.govt.nz provided by the Electricity Authority (New Zealand)
Run at: 20240519173206

Parameters
Date range,24 Apr 2024 - 24 Apr 2024
Time scale,Trading period
Show,Average flow (MW)

Period start,Period end,Trading period,Direction,Energy transfer (GWh),Peak flow (MW),Average flow (MW)
24/04/2024 00:00:00,24/04/2024 00:30:00,1,Southward at Benmore,-0.043,-87,-87
24/04/2024 00:30:00,24/04/2024 01:00:00,2,Southward at Benmore,-0.098,-197,-197
24/04/2024 01:00:00,24/04/2024 01:30:00,3,Southward at Benmore,-0.100,-200,-200
24/04/2024 01:30:00,24/04/2024 02:00:00,4,Southward at Benmore,-0.123,-246,-246
24/04/2024 02:00:00,24/04/2024 02:30:00,5,Southward at Benmore,-0.124,-249,-249
24/04/2024 02:30:00,24/04/2024 03:00:00,6,Southward at Benmore,-0.118,-237,-237
24/04/2024 03:00:00,24/04/2024 03:30:00,7,Southward at Benmore,-0.118,-236,-236
24/04/2024 03:30:00,24/04/2024 04:00:00,8,Southward at Benmore,-0.125,-250,-250
24/04/2024 04:00:00,24/04/2024 04:30:00,9,Southward at Benmore,-0.128,-256,-256
24/04/2024 04:30:00,24/04/2024 05:00:00,10,Southward at Benmore,-0.112,-225,-225
24/04/2024 05:00:00,24/04/2024 05:30:00,11,Southward at Benmore,-0.066,-133,-133
24/04/2024 05:30:00,24/04/2024 06:00:00,12,Southward at Benmore,-0.027,-54,-54
24/04/2024 06:00:00,24/04/2024 06:30:00,13,Northward at Haywards,0.062,124,124
24/04/2024 06:30:00,24/04/2024 07:00:00,14,Northward at Haywards,0.109,218,218
24/04/2024 07:00:00,24/04/2024 07:30:00,15,Northward at Haywards,0.194,387,387
24/04/2024 07:30:00,24/04/2024 08:00:00,16,Northward at Haywards,0.203,406,406
24/04/2024 08:00:00,24/04/2024 08:30:00,17,Northward at Haywards,0.170,340,340
24/04/2024 08:30:00,24/04/2024 09:00:00,18,Northward at Haywards,0.203,406,406
24/04/2024 09:00:00,24/04/2024 09:30:00,19,Northward at Haywards,0.207,414,414
24/04/2024 09:30:00,24/04/2024 10:00:00,20,Northward at Haywards,0.236,471,471
24/04/2024 10:00:00,24/04/2024 10:30:00,21,Northward at Haywards,0.195,390,390
24/04/2024 10:30:00,24/04/2024 11:00:00,22,Northward at Haywards,0.202,404,404
24/04/2024 11:00:00,24/04/2024 11:30:00,23,Northward at Haywards,0.201,402,402
24/04/2024 11:30:00,24/04/2024 12:00:00,24,Northward at Haywards,0.205,410,410
24/04/2024 12:00:00,24/04/2024 12:30:00,25,Northward at Haywards,0.208,416,416
24/04/2024 12:30:00,24/04/2024 13:00:00,26,Northward at Haywards,0.212,423,423
24/04/2024 13:00:00,24/04/2024 13:30:00,27,Northward at Haywards,0.212,423,423
24/04/2024 13:30:00,24/04/2024 14:00:00,28,Northward at Haywards,0.203,406,406
24/04/2024 14:00:00,24/04/2024 14:30:00,29,Northward at Haywards,0.209,417,417
24/04/2024 14:30:00,24/04/2024 15:00:00,30,Northward at Haywards,0.213,426,426
24/04/2024 15:00:00,24/04/2024 15:30:00,31,Northward at Haywards,0.218,436,436
24/04/2024 15:30:00,24/04/2024 16:00:00,32,Northward at Haywards,0.226,452,452
24/04/2024 16:00:00,24/04/2024 16:30:00,33,Northward at Haywards,0.227,454,454
24/04/2024 16:30:00,24/04/2024 17:00:00,34,Northward at Haywards,0.199,398,398
24/04/2024 17:00:00,24/04/2024 17:30:00,35,Northward at Haywards,0.216,432,432
24/04/2024 17:30:00,24/04/2024 18:00:00,36,Northward at Haywards,0.237,473,473
24/04/2024 18:00:00,24/04/2024 18:30:00,37,Northward at Haywards,0.256,512,512
24/04/2024 18:30:00,24/04/2024 19:00:00,38,Northward at Haywards,0.246,492,492
24/04/2024 19:00:00,24/04/2024 19:30:00,39,Northward at Haywards,0.220,439,439
24/04/2024 19:30:00,24/04/2024 20:00:00,40,Northward at Haywards,0.204,407,407
24/04/2024 20:00:00,24/04/2024 20:30:00,41,Northward at Haywards,0.150,300,300
24/04/2024 20:30:00,24/04/2024 21:00:00,42,Northward at Haywards,0.135,269,269
24/04/2024 21:00:00,24/04/2024 21:30:00,43,Northward at Haywards,0.119,237,237
24/04/2024 21:30:00,24/04/2024 22:00:00,44,Northward at Haywards,0.119,237,237
24/04/2024 22:00:00,24/04/2024 22:30:00,45,Northward at Haywards,0.058,115,115
24/04/2024 22:30:00,24/04/2024 23:00:00,46,Northward at Haywards,0.015,29,29
24/04/2024 23:00:00,24/04/2024 23:30:00,47,Southward at Benmore,-0.017,-34,-34
24/04/2024 23:30:00,25/04/2024 00:00:00,48,Southward at Benmore,-0.018,-37,-37
